Location: Mary A Oil Field
(38.5606°N, 98.9545°W)
Time: 09:09:52
(UTC+00:00)

CSL-04 Debris - Pass Details

Date: 20 January 2020
Orbit: 828 x 848 km, 99.0° (Epoch: 27 February)

Event Time Altitude Azimuth Distance (km) Brightness Sun altitude
Rises 00:43:43 0° 149° (SSE) 3,354 7.2 -11.9°
Reaches altitude 10° 00:46:07 10° 144° (SE) 2,424 6.4 -12.4°
Maximum altitude 00:51:15 48° 71° (ENE) 1,071 4.3 -13.4°
Drops below altitude 10° 00:56:25 10° 358° (N) 2,442 6.5 -14.3°
Sets 00:58:51 0° 353° (N) 3,381 7.3 -14.8°
